Oakes, ND

12:38 AM CDT on May 30, 2017 (GMT -0500)
Oakes

Weather History for K2D5 - December, 2012

Change the Weather History Date:

Wednesday, December 19, 2012

  Actual Average (KP67) Record (KP67)
Temperature  
Mean Temperature 16 °F -  
Max Temperature 19 °F 19 °F 30 °F (1997)
Min Temperature 14 °F 5 °F -9 °F (1996)
Degree Days  
Heating Degree Days 48    
Moisture  
Dew Point 13 °F    
Average Humidity 91    
Maximum Humidity 100    
Minimum Humidity 79    
Precipitation  
Precipitation 0.00 in - - ()
Sea Level Pressure  
Sea Level Pressure 29.91 in    
Wind  
Wind Speed 11 mph (West)    
Max Wind Speed 20 mph    
Max Gust Speed 23 mph    
Visibility 10 miles    
Events      
Averages and records for this station are not official NWS values.
T = Trace of Precipitation, MM = Missing Value Source: NWS Daily Summary

Daily Weather History Graph

Daily Weather History Graph

Search for Another Location

Airport or City:

Trip Planner

Search our weather history database for the weather conditions in past years. The results will help you decide how hot, cold, wet, or windy it might be!

Date:

Astronomy

Dec. 19, 2012 Rise Set
Actual Time 8:11 AM CST 4:48 PM CST
Civil Twilight 7:36 AM CST 5:23 PM CST
Nautical Twilight 6:58 AM CST 6:01 PM CST
Astronomical Twilight 6:21 AM CST 6:37 PM CST
Moon 11:58 AM CST (12/19) No Moon Set
Length of Visible Light 9h 46m
Length of Day
8h 37m
Waxing Crescent, 45% of the Moon is Illuminated
Dec 19
Waxing Crescent
Dec 19
First Quarter
Dec 28
Full
Jan 4
Last Quarter
Jan 11
New

Hourly Weather History & Observations

Time (CST) Temp. Windchill Dew Point Humidity Pressure Visibility Wind Dir Wind Speed Gust Speed Precip Events Conditions
12:15 AM 14.0 °F 2.0 °F 14.0 °F 100% 29.74 in 10.0 mi South 9.2 mph - N/A   Unknown
12:35 AM 14.0 °F 2.0 °F 14.0 °F 100% 29.75 in 10.0 mi SSE 9.2 mph - N/A   Unknown
12:55 AM 14.0 °F -0.2 °F 14.0 °F 100% 29.75 in 10.0 mi South 12.7 mph - N/A   Clear
1:15 AM 14.0 °F -0.2 °F 14.0 °F 100% 29.75 in 10.0 mi SSW 12.7 mph - N/A   Clear
1:35 AM 14.0 °F -0.8 °F 14.0 °F 100% 29.75 in 10.0 mi SSW 13.8 mph - N/A   Unknown
1:55 AM 14.0 °F 0.5 °F 14.0 °F 100% 29.76 in 10.0 mi South 11.5 mph - N/A   Unknown
2:15 AM 14.0 °F 0.5 °F 14.0 °F 100% 29.77 in 10.0 mi SSW 11.5 mph - N/A   Unknown
2:35 AM 14.0 °F -0.2 °F 14.0 °F 100% 29.78 in 10.0 mi SSW 12.7 mph - N/A   Unknown
2:55 AM 15.8 °F 2.1 °F 15.8 °F 100% 29.78 in 10.0 mi SSW 12.7 mph - N/A   Unknown
3:15 AM 15.8 °F 4.2 °F 15.8 °F 100% 29.78 in 10.0 mi SW 9.2 mph - N/A   Unknown
3:35 AM 15.8 °F 4.2 °F 15.8 °F 100% 29.78 in 10.0 mi SSW 9.2 mph - N/A   Clear
3:55 AM 15.8 °F 4.2 °F 15.8 °F 100% 29.78 in 10.0 mi SW 9.2 mph - N/A   Unknown
4:15 AM 15.8 °F 3.4 °F 15.8 °F 100% 29.78 in 10.0 mi SW 10.4 mph - N/A   Unknown
4:35 AM 14.0 °F 2.0 °F 14.0 °F 100% 29.79 in 10.0 mi SW 9.2 mph - N/A   Unknown
4:55 AM 14.0 °F 2.0 °F 14.0 °F 100% 29.79 in 10.0 mi WSW 9.2 mph - N/A   Unknown
5:15 AM 14.0 °F 0.5 °F 14.0 °F 100% 29.79 in 10.0 mi WSW 11.5 mph - N/A   Unknown
5:35 AM 14.0 °F 2.9 °F 14.0 °F 100% 29.79 in 10.0 mi WSW 8.1 mph - N/A   Clear
6:15 AM 14.0 °F 8.2 °F 14.0 °F 100% 29.80 in 10.0 mi SSW 3.5 mph - N/A   Unknown
6:35 AM 15.8 °F 7.2 °F 14.0 °F 93% 29.82 in 10.0 mi WSW 5.8 mph - N/A   Unknown
6:55 AM 14.0 °F 2.9 °F 12.2 °F 93% 29.82 in 10.0 mi WSW 8.1 mph - N/A   Unknown
7:15 AM 14.0 °F 2.0 °F 12.2 °F 93% 29.83 in 10.0 mi SW 9.2 mph - N/A   Unknown
7:35 AM 14.0 °F 2.0 °F 12.2 °F 93% 29.83 in 10.0 mi WSW 9.2 mph - N/A   Unknown
7:55 AM 14.0 °F 1.2 °F 14.0 °F 100% 29.84 in 10.0 mi WSW 10.4 mph - N/A   Clear
8:15 AM 15.8 °F 4.2 °F 14.0 °F 93% 29.85 in 10.0 mi WSW 9.2 mph - N/A   Clear
8:35 AM 15.8 °F 5.1 °F 14.0 °F 93% 29.86 in 10.0 mi WSW 8.1 mph - N/A   Unknown
8:55 AM 14.0 °F 2.0 °F 12.2 °F 93% 29.85 in 10.0 mi SW 9.2 mph - N/A   Unknown
9:15 AM 15.8 °F 4.2 °F 12.2 °F 86% 29.86 in 10.0 mi WSW 9.2 mph - N/A   Unknown
9:35 AM 14.0 °F 2.9 °F 10.4 °F 86% 29.87 in 10.0 mi WSW 8.1 mph - N/A   Unknown
9:55 AM 14.0 °F 0.5 °F 10.4 °F 86% 29.88 in 10.0 mi WSW 11.5 mph - N/A   Unknown
10:15 AM 15.8 °F 2.1 °F 10.4 °F 79% 29.89 in 10.0 mi West 12.7 mph 16.1 mph N/A   Clear
10:35 AM 15.8 °F 0.9 °F 12.2 °F 86% 29.89 in 10.0 mi WSW 15.0 mph - N/A   Clear
10:55 AM 15.8 °F -0.2 °F 10.4 °F 79% 29.89 in 10.0 mi WSW 17.3 mph 21.9 mph N/A   Clear
11:15 AM 15.8 °F 1.4 °F 10.4 °F 79% 29.90 in 10.0 mi West 13.8 mph - N/A   Unknown
11:35 AM 15.8 °F -0.2 °F 10.4 °F 79% 29.90 in 10.0 mi West 17.3 mph 20.7 mph N/A   Unknown
11:55 AM 15.8 °F 2.7 °F 12.2 °F 86% 29.90 in 10.0 mi West 11.5 mph - N/A   Unknown
12:15 PM 17.6 °F 3.2 °F 14.0 °F 86% 29.91 in 10.0 mi West 15.0 mph 21.9 mph N/A   Unknown
12:35 PM 17.6 °F 3.7 °F 14.0 °F 86% 29.91 in 10.0 mi West 13.8 mph - N/A   Clear
12:55 PM 17.6 °F 3.7 °F 14.0 °F 86% 29.92 in 10.0 mi West 13.8 mph 17.3 mph N/A   Clear
1:15 PM 17.6 °F 5.0 °F 14.0 °F 86% 29.92 in 10.0 mi West 11.5 mph 17.3 mph N/A   Scattered Clouds
1:35 PM 17.6 °F 5.7 °F 14.0 °F 86% 29.91 in 10.0 mi West 10.4 mph - N/A   Unknown
1:55 PM 17.6 °F 5.0 °F 14.0 °F 86% 29.92 in 10.0 mi West 11.5 mph - N/A   Unknown
2:15 PM 17.6 °F 2.7 °F 14.0 °F 86% 29.91 in 10.0 mi WNW 16.1 mph - N/A   Unknown
2:35 PM 17.6 °F 3.7 °F 14.0 °F 86% 29.93 in 10.0 mi West 13.8 mph - N/A   Unknown
2:55 PM 19.4 °F 10.4 °F 14.0 °F 80% 29.94 in 10.0 mi West 6.9 mph - N/A   Unknown
3:15 PM 17.6 °F 8.2 °F 14.0 °F 86% 29.96 in 10.0 mi West 6.9 mph - N/A   Scattered Clouds
3:35 PM 19.4 °F 8.6 °F 15.8 °F 86% 29.95 in 10.0 mi West 9.2 mph - N/A   Overcast
3:55 PM 19.4 °F 7.9 °F 15.8 °F 86% 29.97 in 10.0 mi West 10.4 mph - N/A   Overcast
4:15 PM 19.4 °F 7.2 °F 15.8 °F 86% 29.97 in 10.0 mi West 11.5 mph 16.1 mph N/A   Unknown
4:35 PM 17.6 °F 2.7 °F 15.8 °F 93% 29.97 in 10.0 mi WNW 16.1 mph - N/A   Unknown
4:55 PM 17.6 °F 6.4 °F 15.8 °F 93% 29.98 in 10.0 mi WNW 9.2 mph - N/A   Unknown
5:15 PM 17.6 °F 5.7 °F 15.8 °F 93% 29.99 in 10.0 mi WNW 10.4 mph - N/A   Unknown
5:35 PM 15.8 °F 6.1 °F 14.0 °F 93% 30.00 in 10.0 mi West 6.9 mph - N/A   Unknown
5:55 PM 17.6 °F 6.4 °F 14.0 °F 86% 30.01 in 10.0 mi WNW 9.2 mph - N/A   Unknown
6:15 PM 17.6 °F 5.0 °F 14.0 °F 86% 30.01 in 10.0 mi WNW 11.5 mph - N/A   Mostly Cloudy
6:35 PM 17.6 °F 5.7 °F 14.0 °F 86% 30.03 in 10.0 mi WNW 10.4 mph - N/A   Mostly Cloudy
6:55 PM 15.8 °F 2.1 °F 14.0 °F 93% 30.03 in 10.0 mi WNW 12.7 mph - N/A   Unknown
7:15 PM 15.8 °F 2.1 °F 12.2 °F 86% 30.02 in 10.0 mi WNW 12.7 mph - N/A   Unknown
7:35 PM 15.8 °F 2.1 °F 12.2 °F 86% 30.03 in 10.0 mi WNW 12.7 mph - N/A   Unknown
7:55 PM 14.0 °F 1.2 °F 10.4 °F 86% 30.04 in 10.0 mi West 10.4 mph - N/A   Unknown
8:15 PM 14.0 °F 0.5 °F 10.4 °F 86% 30.05 in 10.0 mi WNW 11.5 mph - N/A   Unknown
8:35 PM 14.0 °F 0.5 °F 10.4 °F 86% 30.05 in 10.0 mi WNW 11.5 mph - N/A   Overcast
8:55 PM 14.0 °F 2.9 °F 10.4 °F 86% 30.06 in 10.0 mi WNW 8.1 mph - N/A   Overcast
9:15 PM 14.0 °F 1.2 °F 10.4 °F 86% 30.05 in 10.0 mi NW 10.4 mph - N/A   Unknown
9:35 PM 14.0 °F 1.2 °F 10.4 °F 86% 30.05 in 10.0 mi WNW 10.4 mph - N/A   Unknown
9:55 PM 14.0 °F 1.2 °F 10.4 °F 86% 30.05 in 10.0 mi NW 10.4 mph - N/A   Unknown
10:15 PM 14.0 °F -0.8 °F 12.2 °F 93% 30.05 in 10.0 mi NW 13.8 mph - N/A   Unknown
10:35 PM 15.8 °F 0.3 °F 12.2 °F 86% 30.05 in 10.0 mi NW 16.1 mph - N/A   Unknown
10:55 PM 15.8 °F -0.2 °F 12.2 °F 86% 30.05 in 10.0 mi NW 17.3 mph - N/A   Overcast
11:15 PM 14.0 °F -3.4 °F 12.2 °F 93% 30.05 in 10.0 mi NW 19.6 mph 23.0 mph N/A   Overcast
11:35 PM 14.0 °F -2.0 °F 10.4 °F 86% 30.05 in 10.0 mi NNW 16.1 mph 20.7 mph N/A   Unknown
11:55 PM 14.0 °F -3.0 °F 10.4 °F 86% 30.06 in 10.0 mi NNW 18.4 mph - N/A   Unknown